Weather History for KLTS - May, 2014

Change the Weather History Date:

Saturday, May 31, 2014

  Actual Average Record
Temperature  
Mean Temperature 76 °F -  
Max Temperature 88 °F - - ()
Min Temperature 65 °F - - ()
Cooling Degree Days 11    
Growing Degree Days 26 (Base 50)    
Moisture  
Dew Point 66 °F    
Average Humidity 71    
Maximum Humidity 100    
Minimum Humidity 45    
Precipitation  
Precipitation 0.00 in - - ()
Sea Level Pressure  
Sea Level Pressure 29.95 in    
Wind  
Wind Speed 5 mph (ENE)    
Max Wind Speed 9 mph    
Max Gust Speed -    
Visibility 10 miles    
Events      
T = Trace of Precipitation, MM = Missing Value Source: NWS Daily Summary

Daily Weather History Graph

Daily Weather History Graph

Search for Another Location

Airport or City:

Trip Planner

Search our weather history database for the weather conditions in past years. The results will help you decide how hot, cold, wet, or windy it might be!

Date:

Astronomy

May. 31, 2014 Rise Set
Actual Time 6:25 AM CDT 8:44 PM CDT
Civil Twilight 5:56 AM CDT 9:13 PM CDT
Nautical Twilight 5:21 AM CDT 9:48 PM CDT
Astronomical Twilight 4:42 AM CDT 10:27 PM CDT
Moon 9:01 AM CDT (5/31) 11:07 PM CDT (5/31)
Length of Visible Light 15h 16m
Length of Day
14h 18m
Waxing Crescent, 8% of the Moon is Illuminated
May 31
Waxing Crescent
Jun 5
First Quarter
Jun 12
Full
Jun 19
Last Quarter
Jun 27
New

Hourly Weather History & Observations

Time (CDT) Temp. Heat Index Dew Point Humidity Pressure Visibility Wind Dir Wind Speed Gust Speed Precip Events Conditions
12:08 AM 71.6 °F - 66.2 °F 83% 29.98 in 10.0 mi East 5.8 mph - N/A   Overcast
12:23 AM 71.6 °F - 66.2 °F 83% 29.98 in 10.0 mi ENE 5.8 mph - N/A   Scattered Clouds
12:58 AM 70.0 °F - 66.7 °F 89% 29.93 in 10.0 mi East 5.8 mph - N/A   Clear
1:58 AM 70.2 °F - 66.4 °F 88% 29.92 in 10.0 mi East 6.9 mph - N/A   Clear
2:58 AM 68.0 °F - 67.5 °F 98% 29.93 in 10.0 mi Calm Calm - N/A   Clear
3:58 AM 66.6 °F - 66.6 °F 100% 29.93 in 10.0 mi ENE 2.3 mph - N/A   Clear
4:58 AM 65.8 °F - 65.7 °F 99% 29.93 in 10.0 mi ENE 5.8 mph - N/A   Clear
5:13 AM 66.2 °F - 66.2 °F 100% 29.98 in 10.0 mi ENE 2.3 mph - N/A   Mostly Cloudy
5:56 AM 66.2 °F - 66.2 °F 100% 29.99 in 10.0 mi North 2.3 mph - N/A   Overcast
5:58 AM 66.7 °F - 66.7 °F 100% 29.95 in 10.0 mi North 2.3 mph - N/A   Overcast
6:58 AM 68.9 °F - 68.9 °F 100% 29.97 in 10.0 mi NE 4.6 mph - N/A   Overcast
7:13 AM 69.8 °F - 69.8 °F 100% 30.02 in 10.0 mi North 5.8 mph - N/A   Overcast
7:38 AM 69.8 °F - 69.8 °F 100% 30.03 in 10.0 mi NNE 8.1 mph - N/A   Overcast
7:58 AM 69.6 °F - 69.6 °F 100% 30.00 in 10.0 mi North 6.9 mph - N/A   Overcast
8:08 AM 69.8 °F - 69.8 °F 100% 30.03 in 10.0 mi NNE 6.9 mph - N/A   Overcast
8:28 AM 71.6 °F - 69.8 °F 94% 30.02 in 10.0 mi NNE 8.1 mph - N/A   Mostly Cloudy
8:48 AM 71.6 °F - 68.0 °F 88% 30.02 in 10.0 mi NE 6.9 mph - N/A   Mostly Cloudy
8:58 AM 72.9 °F - 68.5 °F 86% 29.99 in 10.0 mi ENE 8.1 mph - N/A   Mostly Cloudy
9:58 AM 73.8 °F - 66.9 °F 79% 29.99 in 10.0 mi North 4.6 mph - N/A   Overcast
10:18 AM 75.2 °F - 66.2 °F 73% 30.02 in 10.0 mi NE 3.5 mph - N/A   Overcast
10:33 AM 75.2 °F - 66.2 °F 73% 30.01 in 10.0 mi North 4.6 mph - N/A   Overcast
10:58 AM 76.1 °F - 67.5 °F 74% 29.98 in 10.0 mi SE 4.6 mph - N/A   Overcast
11:48 AM 77.0 °F - 66.2 °F 69% 30.01 in 10.0 mi North 3.5 mph - N/A   Overcast
11:58 AM 78.4 °F - 66.7 °F 67% 29.97 in 10.0 mi Variable 4.6 mph - N/A   Mostly Cloudy
12:58 PM 79.9 °F - 64.9 °F 60% 29.96 in 10.0 mi Variable 1.2 mph - N/A   Overcast
1:58 PM 81.7 °F 83.6 °F 65.8 °F 58% 29.95 in 10.0 mi ESE 5.8 mph - N/A   Mostly Cloudy
2:18 PM 82.4 °F 84.6 °F 66.2 °F 58% 29.98 in 10.0 mi Variable 5.8 mph - N/A   Mostly Cloudy
2:53 PM 84.2 °F 86.6 °F 66.2 °F 55% 29.97 in 10.0 mi Variable 5.8 mph - N/A   Mostly Cloudy
2:58 PM 84.7 °F 87.1 °F 66.2 °F 54% 29.93 in 10.0 mi North 4.6 mph - N/A   Mostly Cloudy
3:03 PM 84.2 °F 86.6 °F 66.2 °F 55% 29.97 in 10.0 mi Variable 4.6 mph - N/A   Mostly Cloudy
3:08 PM 84.2 °F 85.6 °F 64.4 °F 51% 29.96 in 10.0 mi Variable 2.3 mph - N/A   Mostly Cloudy
3:13 PM 84.2 °F 85.6 °F 64.4 °F 51% 29.96 in 10.0 mi SE 5.8 mph - N/A   Mostly Cloudy
3:18 PM 84.2 °F 85.6 °F 64.4 °F 51% 29.96 in 10.0 mi Variable 3.5 mph - N/A   Mostly Cloudy
3:23 PM 84.2 °F 85.6 °F 64.4 °F 51% 29.96 in 10.0 mi East 6.9 mph - N/A   Mostly Cloudy
3:28 PM 84.2 °F 85.6 °F 64.4 °F 51% 29.95 in 10.0 mi Variable 5.8 mph - N/A   Mostly Cloudy
3:33 PM 84.2 °F 85.6 °F 64.4 °F 51% 29.95 in 10.0 mi NE 5.8 mph - N/A   Mostly Cloudy
3:38 PM 86.0 °F 87.3 °F 64.4 °F 48% 29.95 in 10.0 mi Variable 3.5 mph - N/A   Scattered Clouds
3:58 PM 86.7 °F 87.8 °F 63.5 °F 46% 29.91 in 10.0 mi Variable 3.5 mph - N/A   Partly Cloudy
4:28 PM 86.0 °F 87.3 °F 64.4 °F 48% 29.94 in 10.0 mi NE 6.9 mph - N/A   Mostly Cloudy
4:33 PM 87.8 °F 89.4 °F 64.4 °F 46% 29.94 in 10.0 mi ENE 5.8 mph - N/A   Scattered Clouds
4:58 PM 87.1 °F 88.3 °F 64.2 °F 46% 29.89 in 10.0 mi East 6.9 mph - N/A   Partly Cloudy
5:58 PM 87.6 °F 88.8 °F 64.0 °F 45% 29.88 in 10.0 mi ESE 5.8 mph - N/A   Scattered Clouds
6:38 PM 86.0 °F 87.3 °F 64.4 °F 48% 29.91 in 10.0 mi SE 9.2 mph - N/A   Mostly Cloudy
6:43 PM 86.0 °F 87.3 °F 64.4 °F 48% 29.91 in 10.0 mi ESE 5.8 mph - N/A   Scattered Clouds
6:58 PM 86.2 °F 87.3 °F 64.0 °F 47% 29.86 in 10.0 mi SE 5.8 mph - N/A   Partly Cloudy
7:58 PM 84.2 °F 85.6 °F 64.4 °F 51% 29.86 in 10.0 mi East 8.1 mph - N/A   Clear
8:58 PM 78.6 °F - 65.5 °F 64% 29.87 in 10.0 mi ESE 6.9 mph - N/A   Clear
9:58 PM 75.4 °F - 65.8 °F 72% 29.88 in 10.0 mi East 6.9 mph - N/A   Clear
10:58 PM 72.9 °F - 66.2 °F 80% 29.90 in 10.0 mi East 8.1 mph - N/A   Clear
11:58 PM 73.4 °F - 65.3 °F 76% 29.90 in 10.0 mi ESE 8.1 mph - N/A   Clear